012  
ASUS44 KSHV 171610  
RWRSHV  
 
THE FOUR STATE AREA WEATHER ROUNDUP  
NATIONAL WEATHER SERVICE SHREVEPORT LA  
1100 AM CDT WED AUG 17 2022  
 
NOTE: "FAIR" INDICATES FEW OR NO CLOUDS BELOW 12000 FEET  
WITH NO SIGNIFICANT WEATHER AND/OR S TO VISIBILITY
.  
 
!LAZ001-LAZ014-TXZ097-171700  
SHREVEPORT...MONROE...TEXARKANA RADIOS  
 
CITY SKY/WX TMP DP RH WIND PRES REMARKS
 
SHREVEPORT MOSUNNY 93 74 53 NW7 29.98R HX 103  
MONROE PTSUNNY 85 76 74 NW7 30.01S  
NATCHITOCHES SUNNY 92 75 57 W8 29.99S HX 102  
TEXARKANA PTSUNNY 81 71 71 E12 30.03R  
ATLANTA FAIR 84 76 76 NE8 30.00R  

 
 
!LAZ001-LAZ014-TXZ097-171700  
OTHER LOCATIONS...  
 
CITY SKY/WX TMP DP RH WIND PRES REMARKS
 
DOWNTOWN SHV SUNNY 88 73 62 MISG 29.99R  
BOSSIER CITY PTSUNNY 89 73 59 N8 29.98R  
RUSTON PTSUNNY 88 72 58 NW6 30.04S  
LITTLE ROCK LGT RAIN 72 69 90 S5 30.04R  
EL DORADO MOSUNNY 79 72 79 E5 30.04R  
JACKSON PTSUNNY 87 75 67 W8 30.00R  
NEW ORLEANS PTSUNNY 89 77 67 W8 30.00S HX 101  
HOUSTON MOSUNNY 89 75 63 W8G17 30.00F HX 99  
LUFKIN MOSUNNY 92 72 51 W9 30.01S HX 99  
TYLER SUNNY 94 73 50 SW9 29.98S HX 103  
DAL FT WORTH MOSUNNY 94 62 34 W9 29.97S  

 
 
!TXZ136-TXZ165-171700  
TYLER...LUFKIN RADIOS  
 
CITY SKY/WX TMP DP RH WIND PRES REMARKS
 
TYLER SUNNY 94 73 50 SW9 29.98S HX 103  
GILMER SUNNY 93 68 44 SW8 29.98S  
LONGVIEW SUNNY 95 72 47 W12G20 29.97S HX 103  
LUFKIN MOSUNNY 92 72 51 W9 30.01S HX 99  

 
 
!TXZ136-TXZ165-171700  
OTHER LOCATIONS...  
 
CITY SKY/WX TMP DP RH WIND PRES REMARKS
 
NACOGDOCHES MOSUNNY 89 72 56 W9 30.02R  
BEAUMONT MOSUNNY 88 77 69 W10 30.00S HX 100  
HOUSTON MOSUNNY 89 75 63 W8G17 30.00F HX 99  
COLLEGE STN MOSUNNY 90 73 57 SW7 30.01F HX 98  
AUSTIN MOSUNNY 90 70 51 SW7G18 30.02S  
DAL FT WORTH MOSUNNY 94 62 34 W9 29.97S  
TEXARKANA PTSUNNY 81 71 71 E12 30.03R  
SHREVEPORT MOSUNNY 93 74 53 NW7 29.98R HX 103  
FORT POLK SUNNY 89 72 57 W9 30.00S  
LAKE CHARLES MOSUNNY 87 75 67 W9 30.01R  

 
 
 
CLICK HERE TO GO TO PREVIOUS BULLETINS.

The Nexlab LA Page
The Nexlab TX Page
The Nexlab AR Page
The Nexlab OK Page Main Text Page